Time,TemperatureF,DewpointF,PressureIn,WindDirection,WindDirectionDegrees,WindSpeedMPH,WindSpeedGustMPH,Humidity,HourlyPrecipIn,Conditions,Clouds,dailyrainin,SoftwareType,DateUTC
2013-06-05 00:01:00,49.8,43.2,30.16,NW,316,0.0,0.0,78,0.00,,,0.00,WeatherDisplay:10.37,2013-06-05 04:01:00,
2013-06-05 00:02:00,49.8,43.2,30.16,NW,316,0.0,0.0,78,0.00,,,0.00,WeatherDisplay:10.37,2013-06-05 04:02:00,
2013-06-05 00:03:00,49.9,43.3,30.16,NW,316,0.0,0.0,78,0.00,,,0.00,WeatherDisplay:10.37,2013-06-05 04:03:00,
2013-06-05 00:08:00,50.0,44.1,30.16,NW,316,0.0,0.0,80,0.00,,,0.00,WeatherDisplay:10.37,2013-06-05 04:08:00,
2013-06-05 00:13:00,50.0,43.7,30.16,NW,316,0.0,0.0,79,0.00,,,0.00,WeatherDisplay:10.37,2013-06-05 04:13:00,
2013-06-05 00:18:00,50.0,44.4,30.16,NW,316,0.0,0.0,81,0.00,,,0.00,WeatherDisplay:10.37,2013-06-05 04:18:00,
2013-06-05 00:23:00,50.1,44.8,30.16,NW,316,0.0,0.0,82,0.00,,,0.00,WeatherDisplay:10.37,2013-06-05 04:23:00,
2013-06-05 00:28:00,50.1,44.2,30.16,NW,316,0.0,0.0,80,0.00,,,0.00,WeatherDisplay:10.37,2013-06-05 04:28:00,
2013-06-05 00:33:00,50.1,44.2,30.16,NW,316,0.0,0.0,80,0.00,,,0.00,WeatherDisplay:10.37,2013-06-05 04:33:00,
2013-06-05 00:38:00,50.1,43.5,30.16,NW,316,0.0,0.0,78,0.00,,,0.00,WeatherDisplay:10.37,2013-06-05 04:38:00,
2013-06-05 00:43:00,50.1,44.5,30.16,NW,316,0.0,0.0,81,0.00,,,0.00,WeatherDisplay:10.37,2013-06-05 04:43:00,
2013-06-05 00:48:00,49.9,44.6,30.16,NW,316,0.0,0.0,82,0.00,,,0.00,WeatherDisplay:10.37,2013-06-05 04:48:00,
2013-06-05 00:53:00,49.6,44.3,30.16,NW,316,0.0,0.0,82,0.00,,,0.00,WeatherDisplay:10.37,2013-06-05 04:53:00,
2013-06-05 00:58:00,49.5,44.6,30.16,NW,316,0.0,0.0,83,0.00,,,0.00,WeatherDisplay:10.37,2013-06-05 04:58:00,
2013-06-05 01:03:00,49.2,44.3,30.16,NW,316,0.0,0.0,83,0.00,,,0.00,WeatherDisplay:10.37,2013-06-05 05:03:00,
2013-06-05 01:08:00,48.9,44.0,30.16,NW,316,0.0,0.0,83,0.00,,,0.00,WeatherDisplay:10.37,2013-06-05 05:08:00,
2013-06-05 01:13:00,48.6,43.7,30.16,NW,316,0.0,0.0,83,0.00,,,0.00,WeatherDisplay:10.37,2013-06-05 05:13:00,
2013-06-05 01:18:00,48.4,43.5,30.16,NW,316,0.0,0.0,83,0.00,,,0.00,WeatherDisplay:10.37,2013-06-05 05:18:00,
2013-06-05 01:23:00,48.5,43.9,30.16,NW,316,0.0,0.0,84,0.00,,,0.00,WeatherDisplay:10.37,2013-06-05 05:23:00,
2013-06-05 01:28:00,48.5,44.2,30.16,NW,316,0.0,0.0,85,0.00,,,0.00,WeatherDisplay:10.37,2013-06-05 05:28:00,
2013-06-05 01:33:00,48.6,44.0,30.16,NW,316,0.0,0.0,84,0.00,,,0.00,WeatherDisplay:10.37,2013-06-05 05:33:00,
2013-06-05 01:38:00,48.6,43.4,30.16,NW,316,0.0,0.0,82,0.00,,,0.00,WeatherDisplay:10.37,2013-06-05 05:38:00,
2013-06-05 01:43:00,48.7,43.8,30.16,NW,316,0.0,0.0,83,0.00,,,0.00,WeatherDisplay:10.37,2013-06-05 05:43:00,
2013-06-05 01:48:00,48.7,43.8,30.17,NW,316,0.0,0.0,83,0.00,,,0.00,WeatherDisplay:10.37,2013-06-05 05:48:00,
2013-06-05 01:53:00,48.7,44.1,30.17,NW,316,0.0,0.0,84,0.00,,,0.00,WeatherDisplay:10.37,2013-06-05 05:53:00,
2013-06-05 01:58:00,48.8,44.2,30.16,NW,316,0.0,0.0,84,0.00,,,0.00,WeatherDisplay:10.37,2013-06-05 05:58:00,
2013-06-05 02:03:00,48.8,43.9,30.16,NW,316,0.0,0.0,83,0.00,,,0.00,WeatherDisplay:10.37,2013-06-05 06:03:00,
2013-06-05 02:08:00,48.8,43.5,30.17,NW,316,0.0,0.0,82,0.00,,,0.00,WeatherDisplay:10.37,2013-06-05 06:08:00,
2013-06-05 02:13:00,48.8,43.5,30.17,NW,316,0.0,0.0,82,0.00,,,0.00,WeatherDisplay:10.37,2013-06-05 06:13:00,
2013-06-05 02:18:00,48.7,43.8,30.17,NW,316,0.0,0.0,83,0.00,,,0.00,WeatherDisplay:10.37,2013-06-05 06:18:00,
2013-06-05 02:23:00,48.6,44.0,30.17,NW,316,0.0,0.0,84,0.00,,,0.00,WeatherDisplay:10.37,2013-06-05 06:23:00,
2013-06-05 02:28:00,48.6,44.0,30.17,NW,316,0.0,0.0,84,0.00,,,0.00,WeatherDisplay:10.37,2013-06-05 06:28:00,
2013-06-05 02:33:00,48.7,44.1,30.17,NW,316,0.0,0.0,84,0.00,,,0.00,WeatherDisplay:10.37,2013-06-05 06:33:00,
2013-06-05 02:38:00,48.7,44.1,30.17,NW,316,0.0,0.0,84,0.00,,,0.00,WeatherDisplay:10.37,2013-06-05 06:38:00,
2013-06-05 02:43:00,48.9,44.6,30.16,NW,316,0.0,0.0,85,0.00,,,0.00,WeatherDisplay:10.37,2013-06-05 06:43:00,
2013-06-05 02:48:00,49.1,44.5,30.16,NW,316,0.0,0.0,84,0.00,,,0.00,WeatherDisplay:10.37,2013-06-05 06:48:00,
2013-06-05 02:53:00,49.1,44.5,30.16,NW,316,0.0,0.0,84,0.00,,,0.00,WeatherDisplay:10.37,2013-06-05 06:53:00,
2013-06-05 02:58:00,49.2,44.6,30.17,NW,316,0.0,0.0,84,0.00,,,0.00,WeatherDisplay:10.37,2013-06-05 06:58:00,
2013-06-05 03:03:00,49.3,45.0,30.17,NW,316,0.0,0.0,85,0.00,,,0.00,WeatherDisplay:10.37,2013-06-05 07:03:00,
2013-06-05 03:08:00,49.3,44.7,30.17,NW,316,0.0,0.0,84,0.00,,,0.00,WeatherDisplay:10.37,2013-06-05 07:08:00,
2013-06-05 03:13:00,49.3,44.7,30.17,NW,316,0.0,0.0,84,0.00,,,0.00,WeatherDisplay:10.37,2013-06-05 07:13:00,
2013-06-05 03:18:00,49.2,44.6,30.17,NW,316,0.0,0.0,84,0.00,,,0.00,WeatherDisplay:10.37,2013-06-05 07:18:00,
2013-06-05 03:23:00,49.0,44.1,30.17,NW,316,0.0,0.0,83,0.00,,,0.00,WeatherDisplay:10.37,2013-06-05 07:23:00,
2013-06-05 03:28:00,48.8,43.5,30.17,NW,316,0.0,0.0,82,0.00,,,0.00,WeatherDisplay:10.37,2013-06-05 07:28:00,
2013-06-05 03:33:00,48.5,43.3,30.17,NW,316,0.0,0.0,82,0.00,,,0.00,WeatherDisplay:10.37,2013-06-05 07:33:00,
2013-06-05 03:38:00,48.5,43.9,30.17,NW,316,0.0,0.0,84,0.00,,,0.00,WeatherDisplay:10.37,2013-06-05 07:38:00,
2013-06-05 03:43:00,48.4,43.8,30.17,NW,316,0.0,0.0,84,0.00,,,0.00,WeatherDisplay:10.37,2013-06-05 07:43:00,
2013-06-05 03:48:00,48.2,43.6,30.17,NW,316,0.0,0.0,84,0.00,,,0.00,WeatherDisplay:10.37,2013-06-05 07:48:00,
2013-06-05 03:53:00,48.3,44.0,30.17,NW,316,0.0,0.0,85,0.00,,,0.00,WeatherDisplay:10.37,2013-06-05 07:53:00,
2013-06-05 03:58:00,48.2,43.9,30.17,NW,316,0.0,0.0,85,0.00,,,0.00,WeatherDisplay:10.37,2013-06-05 07:58:00,
2013-06-05 04:03:00,48.1,43.8,30.17,NW,316,0.0,0.0,85,0.00,,,0.00,WeatherDisplay:10.37,2013-06-05 08:03:00,
2013-06-05 04:08:00,48.1,43.8,30.17,NW,316,0.0,0.0,85,0.00,,,0.00,WeatherDisplay:10.37,2013-06-05 08:08:00,
2013-06-05 04:13:00,48.1,43.8,30.17,NW,316,0.0,0.0,85,0.00,,,0.00,WeatherDisplay:10.37,2013-06-05 08:13:00,
2013-06-05 04:18:00,48.1,43.5,30.18,NW,316,0.0,0.0,84,0.00,,,0.00,WeatherDisplay:10.37,2013-06-05 08:18:00,
2013-06-05 04:23:00,48.1,43.8,30.17,NW,316,0.0,0.0,85,0.00,,,0.00,WeatherDisplay:10.37,2013-06-05 08:23:00,
2013-06-05 04:28:00,48.1,43.5,30.17,NW,316,0.0,0.0,84,0.00,,,0.00,WeatherDisplay:10.37,2013-06-05 08:28:00,
2013-06-05 04:33:00,48.1,43.5,30.17,NW,316,0.0,0.0,84,0.00,,,0.00,WeatherDisplay:10.37,2013-06-05 08:33:00,
2013-06-05 04:38:00,48.1,43.5,30.17,NW,316,0.0,0.0,84,0.00,,,0.00,WeatherDisplay:10.37,2013-06-05 08:38:00,
2013-06-05 04:43:00,48.2,43.6,30.18,NW,316,0.0,0.0,84,0.00,,,0.00,WeatherDisplay:10.37,2013-06-05 08:43:00,
2013-06-05 04:48:00,48.8,43.2,30.18,West,268,1.1,0.0,81,0.00,,,0.00,WeatherDisplay:10.37,2013-06-05 08:48:00,
2013-06-05 04:53:00,49.3,43.7,30.18,West,268,0.0,0.0,81,0.00,,,0.00,WeatherDisplay:10.37,2013-06-05 08:53:00,
2013-06-05 04:58:00,49.4,43.5,30.18,West,268,0.0,0.0,80,0.00,,,0.00,WeatherDisplay:10.37,2013-06-05 08:58:00,
2013-06-05 05:03:00,49.4,42.8,30.18,West,269,0.0,0.0,78,0.00,CLR,,0.00,WeatherDisplay:10.37,2013-06-05 09:03:00,
2013-06-05 05:08:00,49.6,43.0,30.18,West,269,0.0,0.0,78,0.00,CLR,,0.00,WeatherDisplay:10.37,2013-06-05 09:08:00,
2013-06-05 05:13:00,49.6,43.0,30.18,West,268,0.0,0.0,78,0.00,CLR,,0.00,WeatherDisplay:10.37,2013-06-05 09:13:00,
2013-06-05 05:18:00,49.7,43.1,30.18,West,269,0.0,0.0,78,0.00,CLR,,0.00,WeatherDisplay:10.37,2013-06-05 09:18:00,
2013-06-05 05:23:00,49.9,43.3,30.18,West,268,0.0,0.0,78,0.00,CLR,,0.00,WeatherDisplay:10.37,2013-06-05 09:23:00,
2013-06-05 05:28:00,50.1,43.5,30.18,West,268,0.0,0.0,78,0.00,CLR,,0.00,WeatherDisplay:10.37,2013-06-05 09:28:00,
2013-06-05 05:33:00,50.1,43.8,30.18,West,269,0.0,0.0,79,0.00,CLR,,0.00,WeatherDisplay:10.37,2013-06-05 09:33:00,
2013-06-05 05:38:00,50.1,43.2,30.18,West,269,0.0,0.0,77,0.00,CLR,,0.00,WeatherDisplay:10.37,2013-06-05 09:38:00,
2013-06-05 05:43:00,50.2,43.9,30.18,West,269,0.0,0.0,79,0.00,CLR,,0.00,WeatherDisplay:10.37,2013-06-05 09:43:00,
2013-06-05 05:48:00,50.2,43.6,30.18,West,269,0.0,0.0,78,0.00,CLR,,0.00,WeatherDisplay:10.37,2013-06-05 09:48:00,
2013-06-05 05:53:00,50.2,43.6,30.19,West,269,0.0,0.0,78,0.00,CLR,,0.00,WeatherDisplay:10.37,2013-06-05 09:53:00,
2013-06-05 05:58:00,50.3,44.0,30.19,West,269,0.0,0.0,79,0.00,CLR,,0.00,WeatherDisplay:10.37,2013-06-05 09:58:00,
2013-06-05 06:03:00,50.4,44.1,30.19,West,268,0.0,0.0,79,0.00,CLR,,0.00,WeatherDisplay:10.37,2013-06-05 10:03:00,
2013-06-05 06:08:00,50.6,44.7,30.18,West,269,0.0,0.0,80,0.00,CLR,,0.00,WeatherDisplay:10.37,2013-06-05 10:08:00,
2013-06-05 06:13:00,50.7,45.4,30.18,West,269,0.0,0.0,82,0.00,CLR,,0.00,WeatherDisplay:10.37,2013-06-05 10:13:00,
2013-06-05 06:18:00,50.8,45.5,30.19,West,269,0.0,0.0,82,0.00,CLR,,0.00,WeatherDisplay:10.37,2013-06-05 10:18:00,
2013-06-05 06:23:00,51.0,45.4,30.19,West,269,0.0,0.0,81,0.00,CLR,,0.00,WeatherDisplay:10.37,2013-06-05 10:23:00,
2013-06-05 06:28:00,51.2,45.6,30.19,West,268,0.0,0.1,81,0.00,CLR,,0.00,WeatherDisplay:10.37,2013-06-05 10:28:00,
2013-06-05 06:33:00,51.5,45.9,30.20,West,269,0.0,0.0,81,0.00,CLR,,0.00,WeatherDisplay:10.37,2013-06-05 10:33:00,
2013-06-05 06:38:00,51.8,46.8,30.20,West,269,0.0,0.0,83,0.00,CLR,,0.00,WeatherDisplay:10.37,2013-06-05 10:38:00,
2013-06-05 06:43:00,52.0,47.0,30.20,West,269,0.0,0.0,83,0.00,CLR,,0.00,WeatherDisplay:10.37,2013-06-05 10:43:00,
2013-06-05 06:49:00,52.2,47.2,30.20,West,269,0.0,0.0,83,0.00,CLR,,0.00,WeatherDisplay:10.37,2013-06-05 10:49:00,
2013-06-05 06:54:00,52.3,47.0,30.20,West,269,0.0,0.0,82,0.00,CLR,,0.00,WeatherDisplay:10.37,2013-06-05 10:54:00,
2013-06-05 06:59:00,52.5,46.8,30.20,West,274,0.0,0.0,81,0.00,CLR,,0.00,WeatherDisplay:10.37,2013-06-05 10:59:00,
2013-06-05 07:04:00,52.7,47.0,30.20,NW,316,0.0,0.0,81,0.00,CLR,,0.00,WeatherDisplay:10.37,2013-06-05 11:04:00,
2013-06-05 07:09:00,53.1,47.4,30.20,NW,318,0.0,0.0,81,0.00,CLR,,0.00,WeatherDisplay:10.37,2013-06-05 11:09:00,
2013-06-05 07:14:00,53.4,48.0,30.20,NNW,342,1.1,1.1,82,0.00,CLR,,0.00,WeatherDisplay:10.37,2013-06-05 11:14:00,
2013-06-05 07:19:00,53.6,47.6,30.20,West,262,2.3,2.3,80,0.00,CLR,,0.00,WeatherDisplay:10.37,2013-06-05 11:19:00,
2013-06-05 07:24:00,53.8,48.1,30.21,NW,305,0.0,0.0,81,0.00,CLR,,0.00,WeatherDisplay:10.37,2013-06-05 11:24:00,
2013-06-05 07:29:00,54.0,48.3,30.21,NNE,23,1.1,1.1,81,0.00,CLR,,0.00,WeatherDisplay:10.37,2013-06-05 11:29:00,
2013-06-05 07:34:00,54.1,48.1,30.20,ENE,69,1.1,1.1,80,0.00,CLR,,0.00,WeatherDisplay:10.37,2013-06-05 11:34:00,
2013-06-05 07:39:00,54.1,48.1,30.20,WNW,290,1.1,1.1,80,0.00,CLR,,0.00,WeatherDisplay:10.37,2013-06-05 11:39:00,
2013-06-05 07:44:00,54.0,48.3,30.20,WNW,291,0.0,0.0,81,0.00,CLR,,0.00,WeatherDisplay:10.37,2013-06-05 11:44:00,
2013-06-05 07:49:00,54.1,48.7,30.21,WNW,291,0.0,0.0,82,0.00,CLR,,0.00,WeatherDisplay:10.37,2013-06-05 11:49:00,
2013-06-05 07:54:00,54.1,49.1,30.21,SSE,162,1.1,1.1,83,0.00,CLR,,0.00,WeatherDisplay:10.37,2013-06-05 11:54:00,
2013-06-05 07:59:00,54.1,49.1,30.21,ENE,58,0.0,0.0,83,0.00,CLR,,0.00,WeatherDisplay:10.37,2013-06-05 11:59:00,
2013-06-05 08:04:00,54.1,49.1,30.21,ENE,58,0.0,0.0,83,0.00,CLR,,0.00,WeatherDisplay:10.37,2013-06-05 12:04:00,
2013-06-05 08:09:00,54.1,48.7,30.21,ENE,58,0.0,0.0,82,0.00,CLR,,0.00,WeatherDisplay:10.37,2013-06-05 12:09:00,
2013-06-05 08:14:00,54.3,48.9,30.21,NNE,32,1.1,1.1,82,0.00,CLR,,0.00,WeatherDisplay:10.37,2013-06-05 12:14:00,
2013-06-05 08:19:00,54.4,49.0,30.21,NNE,32,0.0,0.0,82,0.00,CLR,,0.00,WeatherDisplay:10.37,2013-06-05 12:19:00,
2013-06-05 08:24:00,54.6,48.9,30.22,West,271,1.1,0.0,81,0.00,CLR,,0.00,WeatherDisplay:10.37,2013-06-05 12:24:00,
2013-06-05 08:29:00,54.6,49.2,30.21,WNW,283,0.0,0.0,82,0.00,CLR,,0.00,WeatherDisplay:10.37,2013-06-05 12:29:00,
2013-06-05 08:34:00,54.8,49.4,30.21,WNW,283,0.0,0.0,82,0.00,CLR,,0.00,WeatherDisplay:10.37,2013-06-05 12:34:00,
2013-06-05 08:39:00,54.9,49.5,30.22,ENE,58,0.0,0.0,82,0.00,CLR,,0.00,WeatherDisplay:10.37,2013-06-05 12:39:00,
2013-06-05 08:44:00,55.1,49.4,30.22,WNW,284,1.1,1.1,81,0.00,CLR,,0.00,WeatherDisplay:10.37,2013-06-05 12:44:00,
2013-06-05 08:49:00,55.1,49.7,30.21,NNW,345,0.0,0.0,82,0.00,CLR,,0.00,WeatherDisplay:10.37,2013-06-05 12:49:00,
2013-06-05 08:54:00,55.2,49.8,30.21,North,360,0.0,0.0,82,0.00,CLR,,0.00,WeatherDisplay:10.37,2013-06-05 12:54:00,
2013-06-05 08:59:00,55.5,50.1,30.21,SSW,200,0.0,0.0,82,0.00,CLR,,0.00,WeatherDisplay:10.37,2013-06-05 12:59:00,
2013-06-05 09:04:00,55.9,50.5,30.21,West,265,0.0,0.0,82,0.00,CLR,,0.00,WeatherDisplay:10.37,2013-06-05 13:04:00,
2013-06-05 09:09:00,56.3,50.5,30.21,West,266,0.0,0.0,81,0.00,CLR,,0.00,WeatherDisplay:10.37,2013-06-05 13:09:00,
2013-06-05 09:14:00,56.6,50.8,30.21,SW,231,0.0,0.0,81,0.00,CLR,,0.00,WeatherDisplay:10.37,2013-06-05 13:14:00,
2013-06-05 09:19:00,56.9,50.8,30.22,WSW,253,0.0,0.0,80,0.00,CLR,,0.00,WeatherDisplay:10.37,2013-06-05 13:19:00,
2013-06-05 09:24:00,57.0,51.2,30.22,WNW,282,0.0,0.0,81,0.00,CLR,,0.00,WeatherDisplay:10.37,2013-06-05 13:24:00,
2013-06-05 09:29:00,57.2,51.1,30.22,WNW,295,0.0,0.0,80,0.00,CLR,,0.00,WeatherDisplay:10.37,2013-06-05 13:29:00,
2013-06-05 09:34:00,57.7,51.6,30.22,WNW,294,0.0,0.0,80,0.00,CLR,,0.00,WeatherDisplay:10.37,2013-06-05 13:34:00,
2013-06-05 09:39:00,58.0,51.9,30.22,East,90,0.0,0.0,80,0.00,CLR,,0.00,WeatherDisplay:10.37,2013-06-05 13:39:00,
2013-06-05 09:44:00,57.9,51.1,30.22,ESE,103,0.0,0.0,78,0.00,CLR,,0.00,WeatherDisplay:10.37,2013-06-05 13:44:00,
2013-06-05 09:49:00,58.5,51.7,30.22,SE,133,0.0,0.0,78,0.00,CLR,,0.00,WeatherDisplay:10.37,2013-06-05 13:49:00,
2013-06-05 09:54:00,59.0,51.4,30.22,WNW,285,1.0,1.0,76,0.00,CLR,,0.00,WeatherDisplay:10.37,2013-06-05 13:54:00,
2013-06-05 10:00:00,58.9,51.7,30.22,ENE,68,0.0,0.0,77,0.00,CLR,,0.00,WeatherDisplay:10.37,2013-06-05 14:00:00,
2013-06-05 10:05:00,59.0,51.1,30.22,WNW,293,0.0,0.0,75,0.00,CLR,,0.00,WeatherDisplay:10.37,2013-06-05 14:05:00,
2013-06-05 10:10:00,59.1,51.5,30.22,ESE,110,0.0,0.0,76,0.00,CLR,,0.00,WeatherDisplay:10.37,2013-06-05 14:10:00,
2013-06-05 10:15:00,59.7,51.8,30.22,SSE,152,0.0,0.0,75,0.00,CLR,,0.00,WeatherDisplay:10.37,2013-06-05 14:15:00,
2013-06-05 10:20:00,61.1,53.1,30.22,NW,307,0.0,0.0,75,0.00,CLR,,0.00,WeatherDisplay:10.37,2013-06-05 14:20:00,
2013-06-05 10:25:00,61.2,51.7,30.22,NNW,333,2.3,2.3,71,0.00,CLR,,0.00,WeatherDisplay:10.37,2013-06-05 14:25:00,
2013-06-05 10:30:00,61.1,51.6,30.22,NE,39,2.0,2.0,71,0.00,CLR,,0.00,WeatherDisplay:10.37,2013-06-05 14:30:00,
2013-06-05 10:35:00,61.0,51.5,30.22,SE,128,1.1,1.1,71,0.00,CLR,,0.00,WeatherDisplay:10.37,2013-06-05 14:35:00,
2013-06-05 10:40:00,61.2,52.1,30.22,WNW,300,1.1,0.0,72,0.00,CLR,,0.00,WeatherDisplay:10.37,2013-06-05 14:40:00,
2013-06-05 10:45:00,61.5,52.4,30.22,East,98,1.1,1.1,72,0.00,CLR,,0.00,WeatherDisplay:10.37,2013-06-05 14:45:00,
2013-06-05 10:50:00,61.4,51.5,30.21,NE,49,2.3,2.3,70,0.00,CLR,,0.00,WeatherDisplay:10.37,2013-06-05 14:50:00,
2013-06-05 10:55:00,61.6,52.5,30.21,SSW,204,0.0,0.0,72,0.00,CLR,,0.00,WeatherDisplay:10.37,2013-06-05 14:55:00,
2013-06-05 11:00:00,62.2,51.9,30.21,SE,135,1.1,1.1,69,0.00,CLR,,0.00,WeatherDisplay:10.37,2013-06-05 15:00:00,
2013-06-05 11:05:00,62.9,52.2,30.21,ENE,60,0.0,0.0,68,0.00,CLR,,0.00,WeatherDisplay:10.37,2013-06-05 15:05:00,
2013-06-05 11:10:00,63.2,52.9,30.21,SE,124,0.0,0.0,69,0.00,CLR,,0.00,WeatherDisplay:10.37,2013-06-05 15:10:00,
2013-06-05 11:15:00,63.2,52.1,30.21,WNW,289,0.0,0.0,67,0.00,CLR,,0.00,WeatherDisplay:10.37,2013-06-05 15:15:00,
2013-06-05 11:20:00,62.6,52.3,30.23,WNW,289,0.0,0.0,69,0.00,CLR,,0.00,WeatherDisplay:10.37,2013-06-05 15:20:00,
2013-06-05 11:25:00,62.6,53.4,30.22,NE,46,0.0,0.0,72,0.00,CLR,,0.00,WeatherDisplay:10.37,2013-06-05 15:25:00,
2013-06-05 11:30:00,62.6,51.9,30.22,WSW,256,0.0,0.2,68,0.00,CLR,,0.00,WeatherDisplay:10.37,2013-06-05 15:30:00,
2013-06-05 11:35:00,62.6,51.1,30.22,ENE,68,1.1,1.1,66,0.00,CLR,,0.00,WeatherDisplay:10.37,2013-06-05 15:35:00,
2013-06-05 11:40:00,62.8,51.7,30.21,SSE,150,1.1,1.1,67,0.00,CLR,,0.00,WeatherDisplay:10.37,2013-06-05 15:40:00,
2013-06-05 11:45:00,63.2,52.1,30.21,NNE,30,2.3,2.3,67,0.00,CLR,,0.00,WeatherDisplay:10.37,2013-06-05 15:45:00,
2013-06-05 11:50:00,63.3,51.7,30.22,West,267,1.1,1.1,66,0.00,CLR,,0.00,WeatherDisplay:10.37,2013-06-05 15:50:00,
2013-06-05 11:55:00,63.4,53.0,30.22,ESE,103,0.0,0.0,69,0.00,CLR,,0.00,WeatherDisplay:10.37,2013-06-05 15:55:00,
2013-06-05 12:00:00,63.5,51.5,30.21,ESE,113,1.1,1.1,65,0.00,CLR,,0.00,WeatherDisplay:10.37,2013-06-05 16:00:00,
2013-06-05 12:05:00,63.8,51.8,30.21,SE,124,1.1,1.1,65,0.00,CLR,,0.00,WeatherDisplay:10.37,2013-06-05 16:05:00,
2013-06-05 12:10:00,63.9,51.9,30.21,ESE,113,3.5,3.5,65,0.00,CLR,,0.00,WeatherDisplay:10.37,2013-06-05 16:10:00,
2013-06-05 12:15:00,64.2,51.8,30.21,SW,231,1.1,1.1,64,0.00,CLR,,0.00,WeatherDisplay:10.37,2013-06-05 16:15:00,
2013-06-05 12:20:00,64.4,52.4,30.21,SE,136,3.5,3.5,65,0.00,CLR,,0.00,WeatherDisplay:10.37,2013-06-05 16:20:00,
2013-06-05 12:25:00,64.5,52.0,30.21,NE,54,1.1,1.1,64,0.00,CLR,,0.00,WeatherDisplay:10.37,2013-06-05 16:25:00,
2013-06-05 12:30:00,65.0,51.7,30.21,NNE,15,4.6,4.6,62,0.00,CLR,,0.00,WeatherDisplay:10.37,2013-06-05 16:30:00,
2013-06-05 12:35:00,66.1,52.7,30.20,NNE,27,2.3,2.3,62,0.00,CLR,,0.00,WeatherDisplay:10.37,2013-06-05 16:35:00,
2013-06-05 12:40:00,66.6,54.5,30.20,SE,141,3.5,3.5,65,0.00,CLR,,0.00,WeatherDisplay:10.37,2013-06-05 16:40:00,
2013-06-05 12:45:00,66.6,55.7,30.20,SW,225,1.1,1.1,68,0.00,CLR,,0.00,WeatherDisplay:10.37,2013-06-05 16:45:00,
2013-06-05 12:50:00,66.6,55.3,30.19,East,94,4.6,4.6,67,0.00,CLR,,0.00,WeatherDisplay:10.37,2013-06-05 16:50:00,
2013-06-05 12:55:00,66.2,54.9,30.19,NNE,27,3.5,3.5,67,0.00,CLR,,0.00,WeatherDisplay:10.37,2013-06-05 16:55:00,
2013-06-05 13:00:00,66.2,55.3,30.19,NNE,33,3.5,3.5,68,0.00,CLR,,0.00,WeatherDisplay:10.37,2013-06-05 17:00:00,
2013-06-05 13:05:00,65.9,55.4,30.19,ESE,107,2.3,2.3,69,0.00,CLR,,0.00,WeatherDisplay:10.37,2013-06-05 17:05:00,
2013-06-05 13:11:00,65.3,54.5,30.19,ENE,68,3.5,3.5,68,0.00,CLR,,0.00,WeatherDisplay:10.37,2013-06-05 17:11:00,
2013-06-05 13:16:00,65.0,53.8,30.18,West,281,3.5,3.5,67,0.00,CLR,,0.00,WeatherDisplay:10.37,2013-06-05 17:16:00,
2013-06-05 13:21:00,65.6,55.2,30.18,North,6,3.5,3.5,69,0.00,CLR,,0.00,WeatherDisplay:10.37,2013-06-05 17:21:00,
2013-06-05 13:26:00,66.2,54.9,30.18,North,8,3.0,3.0,67,0.00,CLR,,0.00,WeatherDisplay:10.37,2013-06-05 17:26:00,
2013-06-05 13:31:00,66.1,54.0,30.17,NE,39,3.5,3.5,65,0.00,CLR,,0.00,WeatherDisplay:10.37,2013-06-05 17:31:00,
2013-06-05 13:36:00,65.9,54.6,30.17,West,260,2.3,2.3,67,0.00,CLR,,0.00,WeatherDisplay:10.37,2013-06-05 17:36:00,
2013-06-05 13:41:00,66.0,53.9,30.17,NNE,25,3.5,3.5,65,0.00,CLR,,0.00,WeatherDisplay:10.37,2013-06-05 17:41:00,
2013-06-05 13:46:00,66.6,54.5,30.17,South,174,2.0,2.0,65,0.00,CLR,,0.00,WeatherDisplay:10.37,2013-06-05 17:46:00,
2013-06-05 13:51:00,66.6,54.0,30.17,NE,39,3.5,3.5,64,0.00,CLR,,0.00,WeatherDisplay:10.37,2013-06-05 17:51:00,
2013-06-05 13:56:00,66.9,54.7,30.17,ENE,71,2.3,2.3,65,0.00,CLR,,0.00,WeatherDisplay:10.37,2013-06-05 17:56:00,
2013-06-05 14:01:00,66.9,54.3,30.16,West,262,4.6,4.6,64,0.00,CLR,,0.00,WeatherDisplay:10.37,2013-06-05 18:01:00,
2013-06-05 14:06:00,67.5,54.0,30.16,ENE,64,2.3,2.3,62,0.00,CLR,,0.00,WeatherDisplay:10.37,2013-06-05 18:06:00,
2013-06-05 14:11:00,68.0,54.5,30.16,East,94,3.5,3.5,62,0.00,CLR,,0.00,WeatherDisplay:10.37,2013-06-05 18:11:00,
2013-06-05 14:16:00,67.6,55.0,30.17,SSW,204,3.5,3.5,64,0.00,CLR,,0.00,WeatherDisplay:10.37,2013-06-05 18:16:00,
2013-06-05 14:21:00,67.9,55.3,30.17,East,96,2.3,2.3,64,0.00,CLR,,0.00,WeatherDisplay:10.37,2013-06-05 18:21:00,
2013-06-05 14:26:00,68.3,54.8,30.17,East,96,4.6,4.6,62,0.00,CLR,,0.00,WeatherDisplay:10.37,2013-06-05 18:26:00,
2013-06-05 14:31:00,68.0,53.6,30.17,West,266,7.0,7.0,60,0.00,CLR,,0.00,WeatherDisplay:10.37,2013-06-05 18:31:00,
2013-06-05 14:36:00,67.7,53.8,30.17,ENE,71,4.6,4.6,61,0.00,CLR,,0.00,WeatherDisplay:10.37,2013-06-05 18:36:00,
2013-06-05 14:41:00,67.4,53.5,30.16,NW,307,3.0,3.0,61,0.00,CLR,,0.00,WeatherDisplay:10.37,2013-06-05 18:41:00,
2013-06-05 14:46:00,67.4,53.9,30.16,West,261,5.8,5.8,62,0.00,CLR,,0.00,WeatherDisplay:10.37,2013-06-05 18:46:00,
2013-06-05 14:51:00,66.8,52.9,30.16,West,277,5.8,5.8,61,0.00,CLR,,0.00,WeatherDisplay:10.37,2013-06-05 18:51:00,
2013-06-05 14:56:00,67.3,53.8,30.16,NW,319,3.5,3.5,62,0.00,CLR,,0.00,WeatherDisplay:10.37,2013-06-05 18:56:00,
2013-06-05 15:02:00,67.5,53.6,30.15,ESE,102,5.0,5.0,61,0.00,CLR,,0.00,WeatherDisplay:10.37,2013-06-05 19:02:00,
2013-06-05 15:07:00,67.4,53.5,30.15,ENE,73,2.3,2.3,61,0.00,CLR,,0.00,WeatherDisplay:10.37,2013-06-05 19:07:00,
2013-06-05 15:12:00,66.9,52.6,30.14,SE,124,3.5,3.5,60,0.00,CLR,,0.00,WeatherDisplay:10.37,2013-06-05 19:12:00,
2013-06-05 15:17:00,67.3,53.4,30.14,NE,54,3.0,3.0,61,0.00,CLR,,0.00,WeatherDisplay:10.37,2013-06-05 19:17:00,
2013-06-05 15:22:00,66.7,52.4,30.15,ENE,70,8.1,8.1,60,0.00,CLR,,0.00,WeatherDisplay:10.37,2013-06-05 19:22:00,
2013-06-05 15:27:00,66.1,51.8,30.15,ENE,64,4.6,4.6,60,0.00,CLR,,0.00,WeatherDisplay:10.37,2013-06-05 19:27:00,
2013-06-05 15:32:00,66.2,52.3,30.14,SE,136,4.6,4.6,61,0.00,CLR,,0.00,WeatherDisplay:10.37,2013-06-05 19:32:00,
2013-06-05 15:37:00,66.6,51.4,30.14,NNE,22,2.3,2.3,58,0.00,CLR,,0.00,WeatherDisplay:10.37,2013-06-05 19:37:00,
2013-06-05 15:42:00,66.4,52.5,30.15,NNE,27,4.0,4.0,61,0.00,CLR,,0.00,WeatherDisplay:10.37,2013-06-05 19:42:00,
2013-06-05 15:47:00,66.7,51.5,30.14,ESE,107,1.1,1.1,58,0.00,CLR,,0.00,WeatherDisplay:10.37,2013-06-05 19:47:00,
2013-06-05 15:52:00,66.7,49.5,30.15,SE,136,3.5,3.5,54,0.00,CLR,,0.00,WeatherDisplay:10.37,2013-06-05 19:52:00,
2013-06-05 15:57:00,66.4,50.7,30.15,ENE,65,2.3,2.3,57,0.00,CLR,,0.00,WeatherDisplay:10.37,2013-06-05 19:57:00,
2013-06-05 16:02:00,66.2,50.0,30.15,ENE,58,3.5,3.5,56,0.00,CLR,,0.00,WeatherDisplay:10.37,2013-06-05 20:02:00,
2013-06-05 16:07:00,66.0,49.4,30.15,NE,49,3.5,3.5,55,0.00,CLR,,0.00,WeatherDisplay:10.37,2013-06-05 20:07:00,
2013-06-05 16:12:00,65.8,48.7,30.14,WNW,293,3.5,3.5,54,0.00,CLR,,0.00,WeatherDisplay:10.37,2013-06-05 20:12:00,
2013-06-05 16:17:00,65.5,47.4,30.14,NNW,330,3.5,3.5,52,0.00,CLR,,0.00,WeatherDisplay:10.37,2013-06-05 20:17:00,
2013-06-05 16:22:00,65.4,46.8,30.14,SE,131,5.8,5.8,51,0.00,CLR,,0.00,WeatherDisplay:10.37,2013-06-05 20:22:00,
2013-06-05 16:27:00,65.6,48.5,30.14,East,101,1.1,1.1,54,0.00,CLR,,0.00,WeatherDisplay:10.37,2013-06-05 20:27:00,
2013-06-05 16:32:00,66.3,48.7,30.14,NW,314,5.8,5.8,53,0.00,CLR,,0.00,WeatherDisplay:10.37,2013-06-05 20:32:00,
2013-06-05 16:37:00,66.6,48.9,30.14,NE,39,4.6,4.6,53,0.00,CLR,,0.00,WeatherDisplay:10.37,2013-06-05 20:37:00,
2013-06-05 16:42:00,66.6,48.9,30.14,NNE,27,3.5,3.5,53,0.00,CLR,,0.00,WeatherDisplay:10.37,2013-06-05 20:42:00,
2013-06-05 16:47:00,66.2,48.6,30.15,WSW,246,4.6,4.6,53,0.00,CLR,,0.00,WeatherDisplay:10.37,2013-06-05 20:47:00,
2013-06-05 16:52:00,66.0,48.4,30.14,SW,214,4.0,4.0,53,0.00,CLR,,0.00,WeatherDisplay:10.37,2013-06-05 20:52:00,
2013-06-05 16:57:00,66.3,48.1,30.14,East,93,5.0,5.0,52,0.00,CLR,,0.00,WeatherDisplay:10.37,2013-06-05 20:57:00,
2013-06-05 17:03:00,66.2,48.6,30.13,ENE,60,9.2,9.2,53,0.00,CLR,,0.00,WeatherDisplay:10.37,2013-06-05 21:03:00,
2013-06-05 17:08:00,65.8,45.6,30.13,ENE,75,9.2,9.2,48,0.00,CLR,,0.00,WeatherDisplay:10.37,2013-06-05 21:08:00,
2013-06-05 17:13:00,65.5,45.3,30.13,NE,46,5.8,5.8,48,0.00,CLR,,0.00,WeatherDisplay:10.37,2013-06-05 21:13:00,
2013-06-05 17:18:00,65.5,47.4,30.13,NNW,329,3.5,3.5,52,0.00,CLR,,0.00,WeatherDisplay:10.37,2013-06-05 21:18:00,
2013-06-05 17:23:00,65.5,45.3,30.13,SW,228,3.5,3.5,48,0.00,CLR,,0.00,WeatherDisplay:10.37,2013-06-05 21:23:00,
2013-06-05 17:28:00,65.7,47.6,30.13,NE,37,3.5,3.5,52,0.00,CLR,,0.00,WeatherDisplay:10.37,2013-06-05 21:28:00,
2013-06-05 17:33:00,65.7,45.5,30.12,NNE,25,3.5,3.5,48,0.00,CLR,,0.00,WeatherDisplay:10.37,2013-06-05 21:33:00,
2013-06-05 17:38:00,66.0,48.4,30.12,ENE,77,3.5,3.5,53,0.00,CLR,,0.00,WeatherDisplay:10.37,2013-06-05 21:38:00,
2013-06-05 17:43:00,66.4,46.7,30.12,East,84,3.5,3.5,49,0.00,CLR,,0.00,WeatherDisplay:10.37,2013-06-05 21:43:00,
2013-06-05 17:48:00,66.0,45.2,30.13,NNE,30,3.5,3.5,47,0.00,CLR,,0.00,WeatherDisplay:10.37,2013-06-05 21:48:00,
2013-06-05 17:53:00,65.9,45.1,30.13,NNE,33,4.6,4.6,47,0.00,CLR,,0.00,WeatherDisplay:10.37,2013-06-05 21:53:00,
2013-06-05 17:58:00,65.9,46.2,30.13,ENE,76,6.0,6.0,49,0.00,CLR,,0.00,WeatherDisplay:10.37,2013-06-05 21:58:00,
2013-06-05 18:03:00,65.8,43.3,30.13,NE,51,5.8,5.8,44,0.00,CLR,,0.00,WeatherDisplay:10.37,2013-06-05 22:03:00,
2013-06-05 18:08:00,65.4,42.9,30.12,ENE,58,3.5,3.5,44,0.00,CLR,,0.00,WeatherDisplay:10.37,2013-06-05 22:08:00,
2013-06-05 18:13:00,65.2,42.1,30.12,SE,139,4.6,4.6,43,0.00,CLR,,0.00,WeatherDisplay:10.37,2013-06-05 22:13:00,
2013-06-05 18:18:00,64.7,42.3,30.12,ESE,113,2.3,2.3,44,0.00,CLR,,0.00,WeatherDisplay:10.37,2013-06-05 22:18:00,
2013-06-05 18:23:00,64.1,42.9,30.12,NNE,16,4.6,4.6,46,0.00,CLR,,0.00,WeatherDisplay:10.37,2013-06-05 22:23:00,
2013-06-05 18:28:00,64.3,43.6,30.12,NNE,32,3.5,3.5,47,0.00,CLR,,0.00,WeatherDisplay:10.37,2013-06-05 22:28:00,
2013-06-05 18:33:00,64.8,44.1,30.12,SE,136,2.3,2.3,47,0.00,CLR,,0.00,WeatherDisplay:10.37,2013-06-05 22:33:00,
2013-06-05 18:38:00,64.4,43.2,30.12,ENE,63,3.5,3.5,46,0.00,CLR,,0.00,WeatherDisplay:10.37,2013-06-05 22:38:00,
2013-06-05 18:43:00,63.9,43.3,30.12,SE,134,0.0,0.0,47,0.00,CLR,,0.00,WeatherDisplay:10.37,2013-06-05 22:43:00,
2013-06-05 18:48:00,64.0,43.9,30.12,NNE,18,4.6,4.6,48,0.00,CLR,,0.00,WeatherDisplay:10.37,2013-06-05 22:48:00,
2013-06-05 18:53:00,63.9,43.3,30.12,North,10,5.0,5.0,47,0.00,CLR,,0.00,WeatherDisplay:10.37,2013-06-05 22:53:00,
2013-06-05 18:58:00,63.3,43.8,30.12,NE,51,6.0,6.0,49,0.00,CLR,,0.00,WeatherDisplay:10.37,2013-06-05 22:58:00,
2013-06-05 19:03:00,63.0,43.0,30.12,NW,326,4.0,4.0,48,0.00,CLR,,0.00,WeatherDisplay:10.37,2013-06-05 23:03:00,
2013-06-05 19:08:00,63.3,43.3,30.12,ENE,64,3.0,3.0,48,0.00,CLR,,0.00,WeatherDisplay:10.37,2013-06-05 23:08:00,
2013-06-05 19:13:00,63.3,43.3,30.12,ESE,107,4.6,4.6,48,0.00,CLR,,0.00,WeatherDisplay:10.37,2013-06-05 23:13:00,
2013-06-05 19:18:00,63.0,43.0,30.12,NW,314,3.5,3.5,48,0.00,CLR,,0.00,WeatherDisplay:10.37,2013-06-05 23:18:00,
2013-06-05 19:23:00,62.4,42.4,30.12,NNE,13,2.3,2.3,48,0.00,CLR,,0.00,WeatherDisplay:10.37,2013-06-05 23:23:00,
2013-06-05 19:29:00,61.9,43.6,30.12,SSW,210,3.5,3.5,51,0.00,CLR,,0.00,WeatherDisplay:10.37,2013-06-05 23:29:00,
2013-06-05 19:34:00,61.5,42.2,30.12,East,91,3.5,3.5,49,0.00,CLR,,0.00,WeatherDisplay:10.37,2013-06-05 23:34:00,
2013-06-05 19:39:00,61.2,41.9,30.12,NNE,16,2.3,2.3,49,0.00,CLR,,0.00,WeatherDisplay:10.37,2013-06-05 23:39:00,
2013-06-05 19:44:00,60.9,42.1,30.12,NE,47,2.3,2.3,50,0.00,CLR,,0.00,WeatherDisplay:10.37,2013-06-05 23:44:00,
2013-06-05 19:49:00,60.7,42.5,30.11,WNW,295,1.1,1.1,51,0.00,CLR,,0.00,WeatherDisplay:10.37,2013-06-05 23:49:00,
2013-06-05 19:54:00,60.5,42.8,30.11,NNE,16,1.0,1.0,52,0.00,CLR,,0.00,WeatherDisplay:10.37,2013-06-05 23:54:00,
2013-06-05 19:59:00,60.4,42.2,30.11,ENE,73,4.6,4.6,51,0.00,CLR,,0.00,WeatherDisplay:10.37,2013-06-05 23:59:00,
2013-06-05 20:04:00,60.2,42.0,30.10,NE,53,3.5,3.5,51,0.00,CLR,,0.00,WeatherDisplay:10.37,2013-06-06 00:04:00,
2013-06-05 20:09:00,60.0,42.8,30.11,NE,51,5.8,5.8,53,0.00,CLR,,0.00,WeatherDisplay:10.37,2013-06-06 00:09:00,
2013-06-05 20:14:00,59.8,43.1,30.11,ESE,108,2.3,2.3,54,0.00,CLR,,0.00,WeatherDisplay:10.37,2013-06-06 00:14:00,
2013-06-05 20:19:00,59.6,43.4,30.11,ESE,113,3.5,3.5,55,0.00,CLR,,0.00,WeatherDisplay:10.37,2013-06-06 00:19:00,
2013-06-05 20:24:00,59.4,43.7,30.11,WNW,282,4.6,4.6,56,0.00,CLR,,0.00,WeatherDisplay:10.37,2013-06-06 00:24:00,
2013-06-05 20:29:00,59.1,43.9,30.10,ESE,122,2.3,2.3,57,0.00,CLR,,0.00,WeatherDisplay:10.37,2013-06-06 00:29:00,
2013-06-05 20:34:00,59.0,43.8,30.10,SW,233,2.3,2.3,57,0.00,CLR,,0.00,WeatherDisplay:10.37,2013-06-06 00:34:00,
2013-06-05 20:39:00,58.8,44.0,30.10,NNE,25,4.6,4.6,58,0.00,CLR,,0.00,WeatherDisplay:10.37,2013-06-06 00:39:00,
2013-06-05 20:44:00,58.7,44.4,30.10,West,280,0.0,0.0,59,0.00,CLR,,0.00,WeatherDisplay:10.37,2013-06-06 00:44:00,
2013-06-05 20:49:00,58.5,44.2,30.10,WNW,287,0.0,0.0,59,0.00,CLR,,0.00,WeatherDisplay:10.37,2013-06-06 00:49:00,
2013-06-05 20:54:00,58.3,44.5,30.10,NE,52,1.1,1.1,60,0.00,CLR,,0.00,WeatherDisplay:10.37,2013-06-06 00:54:00,
2013-06-05 20:59:00,58.2,44.4,30.11,South,181,0.0,0.0,60,0.00,CLR,,0.00,WeatherDisplay:10.37,2013-06-06 00:59:00,
2013-06-05 21:04:00,58.0,44.6,30.11,NE,45,3.5,3.5,61,0.00,,,0.00,WeatherDisplay:10.37,2013-06-06 01:04:00,
2013-06-05 21:09:00,58.0,45.0,30.11,SSE,155,1.0,1.0,62,0.00,,,0.00,WeatherDisplay:10.37,2013-06-06 01:09:00,
2013-06-05 21:14:00,57.9,45.0,30.11,NE,39,1.1,1.1,62,0.00,,,0.00,WeatherDisplay:10.37,2013-06-06 01:14:00,
2013-06-05 21:19:00,57.8,45.3,30.11,West,280,0.0,0.0,63,0.00,,,0.00,WeatherDisplay:10.37,2013-06-06 01:19:00,
2013-06-05 21:24:00,57.7,45.6,30.11,SSW,207,0.0,0.0,64,0.00,,,0.00,WeatherDisplay:10.37,2013-06-06 01:24:00,
2013-06-05 21:29:00,57.5,45.4,30.11,WNW,297,1.1,0.0,64,0.00,,,0.00,WeatherDisplay:10.37,2013-06-06 01:29:00,
2013-06-05 21:34:00,57.4,45.7,30.11,NNW,333,0.0,0.0,65,0.00,,,0.00,WeatherDisplay:10.37,2013-06-06 01:34:00,
2013-06-05 21:39:00,57.3,46.0,30.11,NNW,333,0.0,0.0,66,0.00,,,0.00,WeatherDisplay:10.37,2013-06-06 01:39:00,
2013-06-05 21:44:00,57.1,46.6,30.11,NNW,331,0.0,0.0,68,0.00,,,0.00,WeatherDisplay:10.37,2013-06-06 01:44:00,
2013-06-05 21:49:00,56.8,46.7,30.11,NNW,331,0.0,0.0,69,0.00,,,0.00,WeatherDisplay:10.37,2013-06-06 01:49:00,
2013-06-05 21:54:00,56.5,46.4,30.11,NW,321,0.0,0.0,69,0.00,,,0.00,WeatherDisplay:10.37,2013-06-06 01:54:00,
2013-06-05 21:59:00,56.3,46.6,30.11,NW,321,0.0,0.0,70,0.00,,,0.00,WeatherDisplay:10.37,2013-06-06 01:59:00,
2013-06-05 22:04:00,56.1,46.8,30.11,NW,318,0.0,0.0,71,0.00,,,0.00,WeatherDisplay:10.37,2013-06-06 02:04:00,
2013-06-05 22:09:00,56.0,46.7,30.11,NNW,345,1.1,0.0,71,0.00,,,0.00,WeatherDisplay:10.37,2013-06-06 02:09:00,
2013-06-05 22:14:00,56.1,46.8,30.11,WSW,238,0.0,0.0,71,0.00,,,0.00,WeatherDisplay:10.37,2013-06-06 02:14:00,
2013-06-05 22:19:00,56.1,46.8,30.11,SW,226,1.1,0.0,71,0.00,,,0.00,WeatherDisplay:10.37,2013-06-06 02:19:00,
2013-06-05 22:24:00,56.1,46.4,30.11,SW,226,0.0,0.0,70,0.00,,,0.00,WeatherDisplay:10.37,2013-06-06 02:24:00,
2013-06-05 22:29:00,56.0,46.4,30.11,SW,228,0.0,0.0,70,0.00,,,0.00,WeatherDisplay:10.37,2013-06-06 02:29:00,
2013-06-05 22:34:00,56.0,46.4,30.11,SW,228,1.1,0.0,70,0.00,,,0.00,WeatherDisplay:10.37,2013-06-06 02:34:00,
2013-06-05 22:39:00,55.9,47.0,30.10,South,188,0.0,0.0,72,0.00,,,0.00,WeatherDisplay:10.37,2013-06-06 02:39:00,
2013-06-05 22:44:00,55.9,47.0,30.10,South,177,0.0,0.0,72,0.00,,,0.00,WeatherDisplay:10.37,2013-06-06 02:44:00,
2013-06-05 22:49:00,55.9,46.3,30.10,South,177,0.0,0.0,70,0.00,,,0.00,WeatherDisplay:10.37,2013-06-06 02:49:00,
2013-06-05 22:54:00,56.1,46.8,30.09,WSW,240,0.0,0.0,71,0.00,,,0.00,WeatherDisplay:10.37,2013-06-06 02:54:00,
2013-06-05 22:59:00,56.1,46.4,30.09,WSW,240,0.0,0.0,70,0.00,,,0.00,WeatherDisplay:10.37,2013-06-06 02:59:00,
2013-06-05 23:04:00,56.1,46.4,30.09,NNW,347,0.0,0.0,70,0.00,,,0.00,WeatherDisplay:10.37,2013-06-06 03:04:00,
2013-06-05 23:09:00,56.1,46.1,30.09,NNW,336,0.0,0.0,69,0.00,,,0.00,WeatherDisplay:10.37,2013-06-06 03:09:00,
2013-06-05 23:15:00,56.2,46.2,30.09,West,267,0.0,0.0,69,0.00,,,0.00,WeatherDisplay:10.37,2013-06-06 03:15:00,
2013-06-05 23:20:00,56.3,46.3,30.10,West,266,0.0,0.0,69,0.00,,,0.00,WeatherDisplay:10.37,2013-06-06 03:20:00,
2013-06-05 23:25:00,56.2,46.2,30.10,NNE,28,0.0,0.0,69,0.00,,,0.00,WeatherDisplay:10.37,2013-06-06 03:25:00,
2013-06-05 23:30:00,56.2,46.5,30.09,NNE,29,0.0,0.0,70,0.00,,,0.00,WeatherDisplay:10.37,2013-06-06 03:30:00,
2013-06-05 23:35:00,56.2,46.2,30.09,ESE,108,0.0,0.0,69,0.00,,,0.00,WeatherDisplay:10.37,2013-06-06 03:35:00,
2013-06-05 23:40:00,56.2,46.2,30.09,SSW,204,0.0,0.0,69,0.00,,,0.00,WeatherDisplay:10.37,2013-06-06 03:40:00,
2013-06-05 23:45:00,56.3,46.3,30.09,SSW,202,0.0,0.0,69,0.00,,,0.00,WeatherDisplay:10.37,2013-06-06 03:45:00,
2013-06-05 23:50:00,56.3,46.3,30.09,SW,214,0.0,0.0,69,0.00,,,0.00,WeatherDisplay:10.37,2013-06-06 03:50:00,
2013-06-05 23:55:00,56.3,46.3,30.10,SW,214,0.0,0.0,69,0.00,,,0.00,WeatherDisplay:10.37,2013-06-06 03:55:00,